TimeMDT,TemperatureF,Dew PointF,Humidity,Sea Level PressureIn,VisibilityMPH,Wind Direction,Wind SpeedMPH,Gust SpeedMPH,PrecipitationIn,Events,Conditions,WindDirDegrees,DateUTC
12:55 AM,50.0,44.1,80,30.10,10.0,SW,3.5,-,N/A,,Overcast,220,2013-06-15 06:55:00
1:55 AM,50.0,45.0,83,30.09,10.0,WSW,3.5,-,N/A,,Overcast,240,2013-06-15 07:55:00
2:55 AM,48.9,45.0,86,30.08,10.0,South,6.9,-,N/A,,Overcast,190,2013-06-15 08:55:00
3:55 AM,48.0,43.0,83,30.08,10.0,SW,4.6,-,N/A,,Overcast,230,2013-06-15 09:55:00
4:55 AM,44.1,39.9,85,30.09,10.0,Calm,Calm,-,N/A,,Mostly Cloudy,0,2013-06-15 10:55:00
5:55 AM,43.0,39.9,89,30.09,10.0,Calm,Calm,-,N/A,,Mostly Cloudy,0,2013-06-15 11:55:00
6:55 AM,39.9,39.0,97,30.11,10.0,Calm,Calm,-,N/A,,Clear,0,2013-06-15 12:55:00
7:55 AM,48.9,43.0,80,30.09,10.0,Calm,Calm,-,N/A,,Clear,0,2013-06-15 13:55:00
8:55 AM,54.0,44.1,69,30.09,10.0,Calm,Calm,-,N/A,,Clear,0,2013-06-15 14:55:00
9:55 AM,57.0,44.1,62,30.07,10.0,South,5.8,-,N/A,,Clear,170,2013-06-15 15:55:00
10:55 AM,61.0,44.1,54,30.06,10.0,SSE,8.1,-,N/A,,Clear,160,2013-06-15 16:55:00
11:55 AM,64.0,39.9,41,30.04,10.0,SSE,11.5,-,N/A,,Clear,160,2013-06-15 17:55:00
12:55 PM,66.0,39.0,37,30.02,10.0,South,10.4,-,N/A,,Clear,170,2013-06-15 18:55:00
1:55 PM,68.0,41.0,37,30.01,10.0,South,13.8,-,N/A,,Clear,170,2013-06-15 19:55:00
2:55 PM,70.0,39.9,33,29.99,10.0,South,9.2,17.3,N/A,,Clear,180,2013-06-15 20:55:00
3:55 PM,71.1,41.0,34,29.97,10.0,SSE,9.2,-,N/A,,Clear,150,2013-06-15 21:55:00
4:55 PM,72.0,39.9,31,29.96,10.0,South,11.5,-,N/A,,Clear,170,2013-06-15 22:55:00
5:55 PM,73.0,39.9,30,29.96,10.0,Variable,5.8,-,N/A,,Clear,0,2013-06-15 23:55:00
6:55 PM,72.0,36.0,27,29.96,10.0,SSE,3.5,-,N/A,,Clear,150,2013-06-16 00:55:00
7:55 PM,70.0,39.9,33,29.96,10.0,Calm,Calm,-,N/A,,Clear,0,2013-06-16 01:55:00
8:55 PM,68.0,44.1,42,29.96,10.0,Calm,Calm,-,N/A,,Clear,0,2013-06-16 02:55:00
9:55 PM,57.9,45.0,62,29.98,10.0,Calm,Calm,-,N/A,,Clear,0,2013-06-16 03:55:00
10:55 PM,50.0,45.0,83,30.01,10.0,Calm,Calm,-,N/A,,Clear,0,2013-06-16 04:55:00
11:55 PM,48.0,43.0,83,30.02,10.0,Calm,Calm,-,N/A,,Clear,0,2013-06-16 05:55:00